Location: Unspecified
(0.0000°N, 0.0000°E)
Time: 23:09:51
(UTC+00:00)

Vanguard 2 - Pass Details

Date: 02 October 2020
Orbit: 554 x 2937 km, 32.9° (Epoch: 28 October)

Event Time Altitude Azimuth Distance (km) Brightness Sun altitude
Rises 23:03:15 0° 231° (SW) 6,708 12.5 -77.9°
Reaches altitude 10° 23:07:41 10° 229° (SW) 5,758 12.0 -78.9°
Enters shadow 23:09:54 16° 228° (SW) 5,284 11.7 -79.4°
Maximum altitude 23:25:46 75° 145° (SE) 2,720 - -82.9°
Drops below altitude 10° 23:39:09 10° 61° (ENE) 4,447 - -85.3°
Sets 23:42:05 0° 60° (ENE) 5,173 - -85.6°
